Time,TemperatureF,DewpointF,PressureIn,WindDirection,WindDirectionDegrees,WindSpeedMPH,WindSpeedGustMPH,Humidity,HourlyPrecipIn,Conditions,Clouds,dailyrainin,SoftwareType,DateUTC
2013-03-31 00:00:00,46.8,34.9,29.85,SSW,213,4.0,7.0,63,0.00,,OVC250,0.00,VWS V14.00,2013-03-31 04:00:00,
2013-03-31 00:02:00,46.8,34.9,29.85,SSW,213,3.0,4.0,63,0.00,,OVC100,0.00,VWS V14.00,2013-03-31 04:02:00,
2013-03-31 00:07:00,46.8,34.9,29.85,SSW,211,3.0,5.0,63,0.00,,OVC100,0.00,VWS V14.00,2013-03-31 04:07:00,
2013-03-31 00:12:00,46.8,35.3,29.85,SSW,211,4.0,5.0,64,0.00,,OVC100,0.00,VWS V14.00,2013-03-31 04:12:00,
2013-03-31 00:17:00,46.8,35.3,29.85,SSW,209,4.0,6.0,64,0.00,,OVC100,0.00,VWS V14.00,2013-03-31 04:17:00,
2013-03-31 00:22:00,46.9,35.4,29.84,SSW,210,3.0,6.0,64,0.00,,OVC100,0.00,VWS V14.00,2013-03-31 04:22:00,
2013-03-31 00:27:00,46.8,35.3,29.84,SSW,209,2.0,6.0,64,0.00,,OVC100,0.00,VWS V14.00,2013-03-31 04:27:00,
2013-03-31 00:30:00,46.6,34.7,29.86,SSW,212,3.0,7.0,63,0.00,,OVC120,0.00,VWS V14.00,2013-03-31 04:30:00,
2013-03-31 00:32:00,46.7,35.6,29.84,SSW,209,4.0,5.0,65,0.00,,OVC100,0.00,VWS V14.00,2013-03-31 04:32:00,
2013-03-31 00:37:00,46.8,35.7,29.84,SSW,209,3.0,5.0,65,0.00,,OVC100,0.00,VWS V14.00,2013-03-31 04:37:00,
2013-03-31 00:42:00,46.7,35.2,29.83,SSW,197,3.0,5.0,64,0.00,,OVC100,0.00,VWS V14.00,2013-03-31 04:42:00,
2013-03-31 00:47:00,46.7,35.6,29.83,SSW,200,2.0,5.0,65,0.00,,OVC100,0.00,VWS V14.00,2013-03-31 04:47:00,
2013-03-31 00:53:00,46.7,35.6,29.83,SSW,211,5.0,7.0,65,0.00,,OVC100,0.00,VWS V14.00,2013-03-31 04:53:00,
2013-03-31 00:58:00,46.7,35.6,29.83,SSW,211,3.0,7.0,65,0.00,,OVC100,0.00,VWS V14.00,2013-03-31 04:58:00,
2013-03-31 01:00:00,46.8,34.9,29.85,SSW,213,3.0,7.0,63,0.00,,OVC120,0.00,VWS V14.00,2013-03-31 05:00:00,
2013-03-31 01:03:00,46.5,35.4,29.83,SSW,210,5.0,5.0,65,0.00,,OVC110,0.00,VWS V14.00,2013-03-31 05:03:00,
2013-03-31 01:08:00,46.6,35.5,29.82,SSW,211,3.0,6.0,65,0.00,,OVC110,0.00,VWS V14.00,2013-03-31 05:08:00,
2013-03-31 01:13:00,46.5,35.4,29.82,SSW,212,3.0,6.0,65,0.00,,OVC110,0.00,VWS V14.00,2013-03-31 05:13:00,
2013-03-31 01:18:00,46.4,35.7,29.83,SSW,212,0.0,6.0,66,0.00,,OVC110,0.00,VWS V14.00,2013-03-31 05:18:00,
2013-03-31 01:23:00,46.3,36.0,29.82,SSW,212,2.0,6.0,67,0.00,,OVC110,0.00,VWS V14.00,2013-03-31 05:23:00,
2013-03-31 01:28:00,46.1,36.9,29.82,SSW,213,1.0,6.0,70,0.00,,OVC110,0.00,VWS V14.00,2013-03-31 05:28:00,
2013-03-31 01:30:00,46.8,35.3,29.84,SSW,209,3.0,6.0,64,0.00,,OVC120,0.00,VWS V14.00,2013-03-31 05:30:00,
2013-03-31 01:33:00,45.8,37.0,29.81,SSW,213,2.0,2.0,71,0.00,,OVC110,0.00,VWS V14.00,2013-03-31 05:33:00,
2013-03-31 01:38:00,45.5,37.4,29.81,SSW,213,2.0,4.0,73,0.00,,OVC110,0.01,VWS V14.00,2013-03-31 05:38:00,
2013-03-31 01:43:00,45.1,37.3,29.81,SSW,213,0.0,4.0,74,0.00,,OVC110,0.01,VWS V14.00,2013-03-31 05:43:00,
2013-03-31 01:48:00,45.0,37.6,29.81,SSW,213,0.0,4.0,75,0.00,,OVC110,0.01,VWS V14.00,2013-03-31 05:48:00,
2013-03-31 01:53:00,44.8,37.7,29.81,SSW,213,0.0,4.0,76,0.00,,OVC110,0.01,VWS V14.00,2013-03-31 05:53:00,
2013-03-31 01:59:00,44.5,37.8,29.80,SSW,213,1.0,4.0,77,0.00,,OVC110,0.01,VWS V14.00,2013-03-31 05:59:00,
2013-03-31 02:00:00,46.6,35.5,29.83,SSW,211,3.0,7.0,65,0.00,,OVC120,0.00,VWS V14.00,2013-03-31 06:00:00,
2013-03-31 02:04:00,44.5,37.8,29.80,SSW,213,0.0,1.0,77,0.00,,OVC085,0.01,VWS V14.00,2013-03-31 06:04:00,
2013-03-31 02:09:00,44.4,38.0,29.80,SSW,213,4.0,6.0,78,0.00,,OVC085,0.01,VWS V14.00,2013-03-31 06:09:00,
2013-03-31 02:14:00,44.5,38.1,29.79,SSW,206,3.0,6.0,78,0.00,,OVC085,0.01,VWS V14.00,2013-03-31 06:14:00,
2013-03-31 02:19:00,44.6,38.2,29.79,SW,221,5.0,6.0,78,0.00,,OVC085,0.01,VWS V14.00,2013-03-31 06:19:00,
2013-03-31 02:24:00,44.5,38.4,29.79,SW,218,3.0,6.0,79,0.00,,OVC085,0.01,VWS V14.00,2013-03-31 06:24:00,
2013-03-31 02:29:00,44.6,38.5,29.78,SW,219,3.0,6.0,79,0.00,,OVC085,0.01,VWS V14.00,2013-03-31 06:29:00,
2013-03-31 02:30:00,46.0,37.1,29.82,SSW,213,2.0,6.0,71,0.00,,OVC120,0.00,VWS V14.00,2013-03-31 06:30:00,
2013-03-31 02:34:00,44.5,38.4,29.78,SW,217,2.0,5.0,79,0.00,,OVC085,0.01,VWS V14.00,2013-03-31 06:34:00,
2013-03-31 02:39:00,44.4,38.3,29.78,SW,217,3.0,5.0,79,0.00,,OVC085,0.01,VWS V14.00,2013-03-31 06:39:00,
2013-03-31 02:44:00,44.2,38.4,29.77,SW,217,0.0,5.0,80,0.00,,OVC085,0.01,VWS V14.00,2013-03-31 06:44:00,
2013-03-31 02:49:00,44.1,38.3,29.77,SW,217,0.0,5.0,80,0.00,,OVC085,0.01,VWS V14.00,2013-03-31 06:49:00,
2013-03-31 02:54:00,44.2,38.1,29.77,SW,217,0.0,5.0,79,0.00,,OVC085,0.01,VWS V14.00,2013-03-31 06:54:00,
2013-03-31 02:59:00,44.3,38.2,29.76,SW,217,0.0,5.0,79,0.00,,OVC085,0.01,VWS V14.00,2013-03-31 06:59:00,
2013-03-31 03:00:00,44.5,37.8,29.80,SSW,213,0.0,4.0,77,0.00,,OVC120,0.01,VWS V14.00,2013-03-31 07:00:00,
2013-03-31 03:04:00,44.3,37.9,29.76,SW,217,0.0,2.0,78,0.00,,-RA,0.01,VWS V14.00,2013-03-31 07:04:00,
2013-03-31 03:10:00,44.3,37.9,29.76,SW,217,0.0,2.0,78,0.00,,-RA,0.01,VWS V14.00,2013-03-31 07:10:00,
2013-03-31 03:15:00,44.4,37.7,29.75,SW,217,2.0,3.0,77,0.00,,-RA,0.01,VWS V14.00,2013-03-31 07:15:00,
2013-03-31 03:20:00,44.6,37.8,29.75,SW,217,1.0,4.0,77,0.00,,-RA,0.01,VWS V14.00,2013-03-31 07:20:00,
2013-03-31 03:25:00,44.4,37.7,29.75,SW,217,2.0,4.0,77,0.00,,-RA,0.01,VWS V14.00,2013-03-31 07:25:00,
2013-03-31 03:30:00,44.5,37.8,29.75,SW,217,2.0,4.0,77,0.00,,-RA,0.01,VWS V14.00,2013-03-31 07:30:00,
2013-03-31 03:35:00,44.5,37.8,29.74,SW,217,3.0,4.0,77,0.00,,-RA,0.01,VWS V14.00,2013-03-31 07:35:00,
2013-03-31 03:40:00,44.5,38.1,29.74,SW,217,2.0,5.0,78,0.00,,-RA,0.01,VWS V14.00,2013-03-31 07:40:00,
2013-03-31 03:45:00,44.4,38.0,29.74,SW,217,2.0,5.0,78,0.00,,-RA,0.01,VWS V14.00,2013-03-31 07:45:00,
2013-03-31 03:50:00,44.5,37.8,29.74,SW,215,4.0,5.0,77,0.00,,-RA,0.01,VWS V14.00,2013-03-31 07:50:00,
2013-03-31 03:55:00,44.5,38.1,29.73,SW,215,0.0,5.0,78,0.00,,-RA,0.01,VWS V14.00,2013-03-31 07:55:00,
2013-03-31 04:00:00,44.4,38.0,29.73,SW,215,2.0,3.0,78,0.00,,OVC075,0.01,VWS V14.00,2013-03-31 08:00:00,
2013-03-31 04:05:00,44.5,38.1,29.73,SW,215,1.0,3.0,78,0.00,,OVC075,0.01,VWS V14.00,2013-03-31 08:05:00,
2013-03-31 04:10:00,44.5,38.1,29.73,SW,215,2.0,5.0,78,0.00,,OVC075,0.01,VWS V14.00,2013-03-31 08:10:00,
2013-03-31 04:15:00,44.6,38.2,29.72,SW,215,3.0,5.0,78,0.00,,OVC075,0.01,VWS V14.00,2013-03-31 08:15:00,
2013-03-31 04:20:00,44.5,38.1,29.72,SW,215,3.0,5.0,78,0.00,,OVC075,0.01,VWS V14.00,2013-03-31 08:20:00,
2013-03-31 04:25:00,44.4,38.0,29.72,SW,215,1.0,5.0,78,0.00,,OVC075,0.01,VWS V14.00,2013-03-31 08:25:00,
2013-03-31 04:30:00,44.4,38.3,29.72,SW,215,2.0,3.0,79,0.00,,OVC075,0.01,VWS V14.00,2013-03-31 08:30:00,
2013-03-31 04:35:00,44.3,38.2,29.72,SW,214,2.0,3.0,79,0.00,,OVC075,0.01,VWS V14.00,2013-03-31 08:35:00,
2013-03-31 04:40:00,44.3,38.5,29.72,SW,215,2.0,6.0,80,0.00,,OVC075,0.01,VWS V14.00,2013-03-31 08:40:00,
2013-03-31 04:45:00,44.3,38.5,29.72,SW,215,1.0,6.0,80,0.00,,OVC075,0.02,VWS V14.00,2013-03-31 08:45:00,
2013-03-31 04:51:00,44.2,39.1,29.72,SW,215,1.0,6.0,82,0.00,,OVC075,0.02,VWS V14.00,2013-03-31 08:51:00,
2013-03-31 04:56:00,44.1,39.3,29.72,SW,216,0.0,6.0,83,0.00,,OVC075,0.02,VWS V14.00,2013-03-31 08:56:00,
2013-03-31 05:00:00,44.4,38.0,29.73,SW,215,2.0,5.0,78,0.00,,OVC120,0.01,VWS V14.00,2013-03-31 09:00:00,
2013-03-31 05:01:00,43.9,39.4,29.71,SW,216,0.0,0.0,84,0.00,,OVC090,0.02,VWS V14.00,2013-03-31 09:01:00,
2013-03-31 05:06:00,43.6,39.4,29.71,SW,215,0.0,2.0,85,0.00,,OVC090,0.03,VWS V14.00,2013-03-31 09:06:00,
2013-03-31 05:11:00,43.3,39.7,29.71,SW,216,0.0,2.0,87,0.00,,OVC090,0.03,VWS V14.00,2013-03-31 09:11:00,
2013-03-31 05:16:00,43.1,39.8,29.71,SW,215,0.0,2.0,88,0.06,,OVC090,0.04,VWS V14.00,2013-03-31 09:16:00,
2013-03-31 05:21:00,42.9,39.6,29.70,SW,216,0.0,2.0,88,0.13,,OVC090,0.05,VWS V14.00,2013-03-31 09:21:00,
2013-03-31 05:26:00,42.6,39.6,29.70,SW,216,0.0,2.0,89,0.08,,OVC090,0.05,VWS V14.00,2013-03-31 09:26:00,
2013-03-31 05:30:00,44.4,38.3,29.72,SW,215,3.0,5.0,79,0.00,,OVC120,0.01,VWS V14.00,2013-03-31 09:30:00,
2013-03-31 05:32:00,42.4,39.7,29.70,SW,215,0.0,1.0,90,0.05,,OVC090,0.05,VWS V14.00,2013-03-31 09:32:00,
2013-03-31 05:37:00,42.2,39.8,29.70,SW,216,3.0,4.0,91,0.04,,OVC090,0.06,VWS V14.00,2013-03-31 09:37:00,
2013-03-31 05:42:00,42.0,39.8,29.70,SW,215,2.0,4.0,92,0.12,,OVC090,0.07,VWS V14.00,2013-03-31 09:42:00,
2013-03-31 05:47:00,42.0,39.8,29.69,SW,215,2.0,5.0,92,0.06,,OVC090,0.07,VWS V14.00,2013-03-31 09:47:00,
2013-03-31 05:52:00,42.0,40.1,29.69,SW,215,2.0,5.0,93,0.05,,OVC090,0.08,VWS V14.00,2013-03-31 09:52:00,
2013-03-31 05:57:00,42.0,40.1,29.69,SW,215,1.0,5.0,93,0.05,,OVC090,0.08,VWS V14.00,2013-03-31 09:57:00,
2013-03-31 06:00:00,43.9,39.4,29.71,SW,215,0.0,6.0,84,0.00,,OVC120,0.02,VWS V14.00,2013-03-31 10:00:00,
2013-03-31 06:02:00,41.8,39.9,29.69,SW,215,1.0,2.0,93,0.04,,-RA,0.08,VWS V14.00,2013-03-31 10:02:00,
2013-03-31 06:07:00,41.8,39.9,29.68,SW,215,2.0,3.0,93,0.00,,-RA,0.08,VWS V14.00,2013-03-31 10:07:00,
2013-03-31 06:12:00,41.7,39.8,29.68,SW,215,3.0,4.0,93,0.00,,-RA,0.08,VWS V14.00,2013-03-31 10:12:00,
2013-03-31 06:17:00,41.8,40.2,29.68,SW,215,3.0,5.0,94,0.00,,-RA,0.08,VWS V14.00,2013-03-31 10:17:00,
2013-03-31 06:22:00,41.8,40.2,29.68,SW,216,0.0,5.0,94,0.00,,-RA,0.08,VWS V14.00,2013-03-31 10:22:00,
2013-03-31 06:27:00,41.9,40.6,29.68,SW,216,1.0,5.0,95,0.00,,-RA,0.08,VWS V14.00,2013-03-31 10:27:00,
2013-03-31 06:30:00,42.5,39.8,29.70,SW,216,1.0,2.0,90,0.05,,OVC120,0.05,VWS V14.00,2013-03-31 10:30:00,
2013-03-31 06:32:00,41.9,40.6,29.68,SW,216,2.0,6.0,95,0.00,,-RA,0.08,VWS V14.00,2013-03-31 10:32:00,
2013-03-31 06:37:00,41.9,40.6,29.68,SW,216,4.0,7.0,95,0.00,,-RA,0.08,VWS V14.00,2013-03-31 10:37:00,
2013-03-31 06:43:00,42.0,40.7,29.68,SW,218,2.0,7.0,95,0.00,,-RA,0.08,VWS V14.00,2013-03-31 10:43:00,
2013-03-31 06:48:00,42.0,40.9,29.68,SW,223,6.0,8.0,96,0.00,,-RA,0.09,VWS V14.00,2013-03-31 10:48:00,
2013-03-31 06:53:00,42.0,40.9,29.67,SW,223,1.0,8.0,96,0.00,,-RA,0.09,VWS V14.00,2013-03-31 10:53:00,
2013-03-31 06:58:00,42.0,40.9,29.67,SW,223,3.0,8.0,96,0.00,,-RA,0.09,VWS V14.00,2013-03-31 10:58:00,
2013-03-31 07:00:00,42.0,40.9,29.67,SW,222,1.0,8.0,96,0.00,,OVC110,0.09,VWS V14.00,2013-03-31 11:00:00,
2013-03-31 07:03:00,41.9,40.8,29.67,SW,222,0.0,2.0,96,0.00,,-RA,0.09,VWS V14.00,2013-03-31 11:03:00,
2013-03-31 07:08:00,41.9,40.8,29.68,SW,222,0.0,3.0,96,0.00,,-RA,0.09,VWS V14.00,2013-03-31 11:08:00,
2013-03-31 07:13:00,42.0,40.9,29.67,SW,222,0.0,3.0,96,0.00,,-RA,0.09,VWS V14.00,2013-03-31 11:13:00,
2013-03-31 07:18:00,42.1,41.0,29.67,SW,224,0.0,3.0,96,0.00,,-RA,0.09,VWS V14.00,2013-03-31 11:18:00,
2013-03-31 07:23:00,42.2,41.4,29.67,SW,236,0.0,4.0,97,0.00,,-RA,0.09,VWS V14.00,2013-03-31 11:23:00,
2013-03-31 07:28:00,42.2,41.4,29.67,SW,236,2.0,4.0,97,0.00,,-RA,0.09,VWS V14.00,2013-03-31 11:28:00,
2013-03-31 07:30:00,41.9,40.6,29.68,SW,215,3.0,5.0,95,0.00,,OVC120,0.08,VWS V14.00,2013-03-31 11:30:00,
2013-03-31 07:33:00,42.2,41.4,29.67,WSW,240,2.0,3.0,97,0.00,,-RA,0.09,VWS V14.00,2013-03-31 11:33:00,
2013-03-31 07:38:00,42.2,41.4,29.67,SW,234,0.0,3.0,97,0.00,,-RA,0.09,VWS V14.00,2013-03-31 11:38:00,
2013-03-31 07:43:00,42.2,41.4,29.67,WNW,289,1.0,5.0,97,0.00,,-RA,0.09,VWS V14.00,2013-03-31 11:43:00,
2013-03-31 07:48:00,42.1,41.3,29.67,WSW,248,0.0,6.0,97,0.00,,-RA,0.09,VWS V14.00,2013-03-31 11:48:00,
2013-03-31 07:53:00,42.1,41.3,29.67,WSW,252,0.0,6.0,97,0.00,,-RA,0.09,VWS V14.00,2013-03-31 11:53:00,
2013-03-31 07:58:00,42.1,41.3,29.67,West,271,1.0,6.0,97,0.00,,-RA,0.09,VWS V14.00,2013-03-31 11:58:00,
2013-03-31 08:00:00,42.0,40.9,29.67,SW,222,1.0,8.0,96,0.00,,OVC120,0.09,VWS V14.00,2013-03-31 12:00:00,
2013-03-31 08:03:00,42.0,41.2,29.68,West,266,3.0,6.0,97,0.00,,,0.09,VWS V14.00,2013-03-31 12:03:00,
2013-03-31 08:09:00,41.9,41.1,29.68,WNW,288,2.0,6.0,97,0.00,,,0.09,VWS V14.00,2013-03-31 12:09:00,
2013-03-31 08:14:00,41.8,41.0,29.68,WNW,298,3.0,6.0,97,0.00,,,0.09,VWS V14.00,2013-03-31 12:14:00,
2013-03-31 08:19:00,41.6,40.8,29.68,WNW,294,0.0,6.0,97,0.00,,,0.09,VWS V14.00,2013-03-31 12:19:00,
2013-03-31 08:24:00,41.6,40.8,29.68,WNW,292,1.0,6.0,97,0.00,,,0.09,VWS V14.00,2013-03-31 12:24:00,
2013-03-31 08:29:00,41.6,40.8,29.67,WNW,292,0.0,6.0,97,0.00,,,0.09,VWS V14.00,2013-03-31 12:29:00,
2013-03-31 08:30:00,42.2,41.4,29.67,WSW,238,1.0,4.0,97,0.00,,OVC120,0.09,VWS V14.00,2013-03-31 12:30:00,
2013-03-31 08:34:00,41.6,40.8,29.68,WNW,303,0.0,2.0,97,0.00,,,0.09,VWS V14.00,2013-03-31 12:34:00,
2013-03-31 08:39:00,41.6,40.8,29.68,WNW,303,0.0,2.0,97,0.00,,,0.09,VWS V14.00,2013-03-31 12:39:00,
2013-03-31 08:44:00,41.6,40.8,29.68,WNW,303,0.0,2.0,97,0.00,,,0.09,VWS V14.00,2013-03-31 12:44:00,
2013-03-31 08:49:00,41.5,40.7,29.68,WNW,303,0.0,2.0,97,0.00,,,0.09,VWS V14.00,2013-03-31 12:49:00,
2013-03-31 08:54:00,41.5,40.7,29.68,WNW,303,0.0,2.0,97,0.00,,,0.09,VWS V14.00,2013-03-31 12:54:00,
2013-03-31 08:59:00,41.5,40.7,29.67,WNW,303,0.0,2.0,97,0.00,,,0.09,VWS V14.00,2013-03-31 12:59:00,
2013-03-31 09:00:00,42.1,41.3,29.67,West,271,0.0,6.0,97,0.00,,OVC120,0.09,VWS V14.00,2013-03-31 13:00:00,
2013-03-31 09:04:00,41.5,40.7,29.67,WNW,303,0.0,0.0,97,0.00,,,0.09,VWS V14.00,2013-03-31 13:04:00,
2013-03-31 09:09:00,41.4,40.6,29.67,WNW,303,1.0,2.0,97,0.00,,,0.09,VWS V14.00,2013-03-31 13:09:00,
2013-03-31 09:14:00,41.4,40.6,29.67,WNW,302,1.0,4.0,97,0.00,,,0.09,VWS V14.00,2013-03-31 13:14:00,
2013-03-31 09:20:00,41.3,40.5,29.67,WNW,303,0.0,4.0,97,0.00,,,0.09,VWS V14.00,2013-03-31 13:20:00,
2013-03-31 09:25:00,41.3,40.5,29.67,WNW,291,0.0,5.0,97,0.00,,,0.09,VWS V14.00,2013-03-31 13:25:00,
2013-03-31 09:30:00,41.3,40.5,29.67,WNW,302,1.0,5.0,97,0.00,,,0.09,VWS V14.00,2013-03-31 13:30:00,
2013-03-31 09:35:00,41.3,40.5,29.67,NW,325,2.0,5.0,97,0.00,,,0.09,VWS V14.00,2013-03-31 13:35:00,
2013-03-31 09:40:00,41.2,40.4,29.67,West,261,0.0,6.0,97,0.00,,,0.09,VWS V14.00,2013-03-31 13:40:00,
2013-03-31 09:45:00,41.2,40.4,29.67,West,267,2.0,6.0,97,0.00,,,0.09,VWS V14.00,2013-03-31 13:45:00,
2013-03-31 09:50:00,41.2,40.4,29.67,West,281,0.0,8.0,97,0.00,,,0.09,VWS V14.00,2013-03-31 13:50:00,
2013-03-31 09:55:00,41.1,40.3,29.67,West,279,1.0,8.0,97,0.00,,,0.09,VWS V14.00,2013-03-31 13:55:00,
2013-03-31 10:00:00,41.1,40.3,29.67,WNW,300,1.0,2.0,97,0.00,,,0.09,VWS V14.00,2013-03-31 14:00:00,
2013-03-31 10:05:00,41.0,40.2,29.67,West,271,3.0,6.0,97,0.00,,,0.09,VWS V14.00,2013-03-31 14:05:00,
2013-03-31 10:10:00,40.9,39.8,29.67,WSW,242,0.0,6.0,96,0.00,,,0.09,VWS V14.00,2013-03-31 14:10:00,
2013-03-31 10:15:00,40.8,39.8,29.67,WSW,252,0.0,6.0,96,0.00,,,0.09,VWS V14.00,2013-03-31 14:15:00,
2013-03-31 10:20:00,40.7,39.7,29.67,WNW,286,2.0,6.0,96,0.00,,,0.09,VWS V14.00,2013-03-31 14:20:00,
2013-03-31 10:25:00,40.6,39.5,29.67,WNW,292,2.0,9.0,96,0.00,,,0.09,VWS V14.00,2013-03-31 14:25:00,
2013-03-31 10:30:00,40.5,39.5,29.67,WNW,300,4.0,4.0,96,0.00,,,0.09,VWS V14.00,2013-03-31 14:30:00,
2013-03-31 10:36:00,40.5,39.5,29.67,WNW,300,3.0,7.0,96,0.00,,,0.09,VWS V14.00,2013-03-31 14:36:00,
2013-03-31 10:41:00,40.5,39.2,29.67,WSW,255,0.0,7.0,95,0.00,,,0.09,VWS V14.00,2013-03-31 14:41:00,
2013-03-31 10:46:00,40.4,39.1,29.67,WSW,242,0.0,7.0,95,0.00,,,0.09,VWS V14.00,2013-03-31 14:46:00,
2013-03-31 10:51:00,40.5,39.2,29.67,SW,230,1.0,11.0,95,0.00,,,0.09,VWS V14.00,2013-03-31 14:51:00,
2013-03-31 10:56:00,40.8,39.5,29.67,WNW,300,0.0,11.0,95,0.00,,,0.09,VWS V14.00,2013-03-31 14:56:00,
2013-03-31 11:00:00,41.1,40.3,29.67,WNW,300,2.0,8.0,97,0.00,,OVC120,0.09,VWS V14.00,2013-03-31 15:00:00,
2013-03-31 11:01:00,41.1,39.8,29.67,WNW,286,0.0,3.0,95,0.00,,OVC012,0.09,VWS V14.00,2013-03-31 15:01:00,
2013-03-31 11:06:00,41.1,39.5,29.67,SW,234,0.0,4.0,94,0.00,,OVC012,0.09,VWS V14.00,2013-03-31 15:06:00,
2013-03-31 11:11:00,41.1,39.5,29.67,WNW,299,0.0,8.0,94,0.00,,OVC012,0.09,VWS V14.00,2013-03-31 15:11:00,
2013-03-31 11:16:00,41.2,39.3,29.67,WNW,295,2.0,8.0,93,0.00,,OVC012,0.09,VWS V14.00,2013-03-31 15:16:00,
2013-03-31 11:22:00,41.2,39.3,29.67,West,273,1.0,8.0,93,0.00,,OVC012,0.09,VWS V14.00,2013-03-31 15:22:00,
2013-03-31 11:27:00,41.3,39.4,29.67,West,281,2.0,8.0,93,0.00,,OVC012,0.09,VWS V14.00,2013-03-31 15:27:00,
2013-03-31 11:30:00,40.5,39.5,29.67,WNW,303,0.0,9.0,96,0.00,,OVC120,0.09,VWS V14.00,2013-03-31 15:30:00,
2013-03-31 11:32:00,41.4,39.2,29.67,WNW,296,0.0,3.0,92,0.00,,OVC012,0.09,VWS V14.00,2013-03-31 15:32:00,
2013-03-31 11:37:00,41.6,39.7,29.67,West,267,3.0,5.0,93,0.00,,OVC012,0.09,VWS V14.00,2013-03-31 15:37:00,
2013-03-31 11:42:00,41.9,39.8,29.67,West,277,0.0,5.0,92,0.00,,OVC012,0.09,VWS V14.00,2013-03-31 15:42:00,
2013-03-31 11:47:00,42.3,40.2,29.67,WNW,284,0.0,5.0,92,0.00,,OVC012,0.09,VWS V14.00,2013-03-31 15:47:00,
2013-03-31 11:52:00,42.8,40.4,29.67,West,269,0.0,7.0,91,0.00,,OVC012,0.09,VWS V14.00,2013-03-31 15:52:00,
2013-03-31 11:58:00,43.3,40.8,29.67,WNW,291,2.0,7.0,91,0.00,,OVC012,0.09,VWS V14.00,2013-03-31 15:58:00,
2013-03-31 12:00:00,41.0,41.0,29.67,WNW,286,2.0,11.0,100,0.00,,OVC120,0.09,VWS V14.00,2013-03-31 16:00:00,
2013-03-31 12:03:00,43.8,41.3,29.67,West,281,1.0,4.0,91,0.00,,OVC012,0.09,VWS V14.00,2013-03-31 16:03:00,
2013-03-31 12:08:00,44.2,41.5,29.67,SW,236,2.0,6.0,90,0.00,,OVC012,0.09,VWS V14.00,2013-03-31 16:08:00,
2013-03-31 12:13:00,44.6,41.8,29.67,West,259,1.0,7.0,90,0.00,,OVC012,0.09,VWS V14.00,2013-03-31 16:13:00,
2013-03-31 12:18:00,45.4,42.3,29.67,WSW,240,4.0,10.0,89,0.00,,OVC012,0.09,VWS V14.00,2013-03-31 16:18:00,
2013-03-31 12:23:00,45.7,42.4,29.67,SW,232,5.0,10.0,88,0.00,,OVC012,0.09,VWS V14.00,2013-03-31 16:23:00,
2013-03-31 12:28:00,45.9,42.3,29.67,WNW,298,4.0,10.0,87,0.00,,OVC012,0.09,VWS V14.00,2013-03-31 16:28:00,
2013-03-31 12:30:00,41.4,39.5,29.67,WNW,300,3.0,8.0,93,0.00,,OVC120,0.09,VWS V14.00,2013-03-31 16:30:00,
2013-03-31 12:33:00,45.9,41.7,29.67,SW,225,4.0,6.0,85,0.00,,OVC012,0.09,VWS V14.00,2013-03-31 16:33:00,
2013-03-31 12:38:00,46.2,42.2,29.66,SW,223,6.0,9.0,86,0.00,,OVC012,0.09,VWS V14.00,2013-03-31 16:38:00,
2013-03-31 12:43:00,46.4,41.5,29.67,WNW,302,2.0,9.0,83,0.00,,OVC012,0.09,VWS V14.00,2013-03-31 16:43:00,
2013-03-31 12:48:00,46.2,41.6,29.67,SW,222,4.0,9.0,84,0.00,,OVC012,0.09,VWS V14.00,2013-03-31 16:48:00,
2013-03-31 12:53:00,46.4,41.5,29.66,WSW,245,1.0,9.0,83,0.00,,OVC012,0.09,VWS V14.00,2013-03-31 16:53:00,
2013-03-31 12:58:00,46.3,41.1,29.66,WSW,244,7.0,9.0,82,0.00,,OVC012,0.09,VWS V14.00,2013-03-31 16:58:00,
2013-03-31 13:00:00,43.4,41.0,29.67,WNW,290,1.0,7.0,91,0.00,,OVC120,0.09,VWS V14.00,2013-03-31 17:00:00,
2013-03-31 13:03:00,45.5,40.7,29.67,WSW,252,5.0,8.0,83,0.00,,OVC014,0.09,VWS V14.00,2013-03-31 17:03:00,
2013-03-31 13:08:00,45.6,41.0,29.67,SW,232,4.0,8.0,84,0.00,,OVC014,0.09,VWS V14.00,2013-03-31 17:08:00,
2013-03-31 13:13:00,45.3,40.5,29.67,West,263,1.0,10.0,83,0.00,,OVC014,0.09,VWS V14.00,2013-03-31 17:13:00,
2013-03-31 13:18:00,45.0,40.2,29.66,North,349,2.0,10.0,83,0.00,,OVC014,0.09,VWS V14.00,2013-03-31 17:18:00,
2013-03-31 13:23:00,44.5,39.7,29.66,NW,308,1.0,10.0,83,0.00,,OVC014,0.09,VWS V14.00,2013-03-31 17:23:00,
2013-03-31 13:28:00,44.3,40.1,29.66,SW,231,5.0,10.0,85,0.00,,OVC014,0.09,VWS V14.00,2013-03-31 17:28:00,
2013-03-31 13:30:00,45.8,41.9,29.67,WSW,240,0.0,10.0,86,0.00,,OVC120,0.09,VWS V14.00,2013-03-31 17:30:00,
2013-03-31 13:34:00,43.6,39.4,29.67,WNW,290,3.0,10.0,85,0.00,,OVC014,0.09,VWS V14.00,2013-03-31 17:34:00,
2013-03-31 13:39:00,43.2,39.0,29.66,SW,221,7.0,11.0,85,0.00,,OVC014,0.09,VWS V14.00,2013-03-31 17:39:00,
2013-03-31 13:44:00,42.9,39.3,29.66,SW,218,3.0,11.0,87,0.00,,OVC014,0.09,VWS V14.00,2013-03-31 17:44:00,
2013-03-31 13:49:00,43.1,39.5,29.66,WNW,298,3.0,11.0,87,0.00,,OVC014,0.09,VWS V14.00,2013-03-31 17:49:00,
2013-03-31 13:54:00,43.1,39.2,29.66,West,281,3.0,11.0,86,0.00,,OVC014,0.09,VWS V14.00,2013-03-31 17:54:00,
2013-03-31 13:59:00,42.8,38.9,29.66,West,263,1.0,11.0,86,0.00,,OVC014,0.09,VWS V14.00,2013-03-31 17:59:00,
2013-03-31 14:00:00,46.1,41.2,29.66,WSW,240,5.0,10.0,83,0.00,,OVC120,0.09,VWS V14.00,2013-03-31 18:00:00,
2013-03-31 14:04:00,42.5,38.6,29.66,WSW,242,4.0,10.0,86,0.00,,OVC012,0.09,VWS V14.00,2013-03-31 18:04:00,
2013-03-31 14:09:00,42.5,39.2,29.66,West,261,4.0,10.0,88,0.00,,OVC012,0.09,VWS V14.00,2013-03-31 18:09:00,
2013-03-31 14:14:00,42.4,38.8,29.66,SW,234,2.0,10.0,87,0.00,,OVC012,0.09,VWS V14.00,2013-03-31 18:14:00,
2013-03-31 14:19:00,42.4,38.5,29.66,WNW,294,1.0,10.0,86,0.00,,OVC012,0.09,VWS V14.00,2013-03-31 18:19:00,
2013-03-31 14:24:00,42.3,38.4,29.66,NW,304,3.0,10.0,86,0.00,,OVC012,0.09,VWS V14.00,2013-03-31 18:24:00,
2013-03-31 14:29:00,42.1,38.2,29.66,WSW,242,4.0,10.0,86,0.00,,OVC012,0.09,VWS V14.00,2013-03-31 18:29:00,
2013-03-31 14:30:00,44.2,39.7,29.67,SW,228,5.0,10.0,84,0.00,,OVC120,0.09,VWS V14.00,2013-03-31 18:30:00,
2013-03-31 14:34:00,41.9,38.3,29.66,NW,313,5.0,9.0,87,0.00,,OVC012,0.09,VWS V14.00,2013-03-31 18:34:00,
2013-03-31 14:39:00,41.7,37.8,29.66,SW,232,3.0,9.0,86,0.00,,OVC012,0.09,VWS V14.00,2013-03-31 18:39:00,
2013-03-31 14:44:00,41.7,38.1,29.66,NW,318,4.0,9.0,87,0.00,,OVC012,0.09,VWS V14.00,2013-03-31 18:44:00,
2013-03-31 14:49:00,41.6,38.0,29.66,WNW,296,6.0,9.0,87,0.00,,OVC012,0.09,VWS V14.00,2013-03-31 18:49:00,
2013-03-31 14:54:00,41.5,37.9,29.66,West,279,2.0,9.0,87,0.00,,OVC012,0.09,VWS V14.00,2013-03-31 18:54:00,
2013-03-31 14:59:00,41.6,38.0,29.66,WSW,242,5.0,9.0,87,0.00,,OVC012,0.09,VWS V14.00,2013-03-31 18:59:00,
2013-03-31 15:00:00,42.7,38.8,29.66,WSW,246,3.0,11.0,86,0.00,,OVC120,0.09,VWS V14.00,2013-03-31 19:00:00,
2013-03-31 15:04:00,41.5,38.2,29.66,SW,233,3.0,6.0,88,0.00,,OVC010,0.09,VWS V14.00,2013-03-31 19:04:00,
2013-03-31 15:10:00,41.6,38.3,29.66,WSW,242,2.0,7.0,88,0.00,,OVC010,0.09,VWS V14.00,2013-03-31 19:10:00,
2013-03-31 15:15:00,41.8,38.5,29.65,SSW,207,3.0,7.0,88,0.00,,OVC010,0.09,VWS V14.00,2013-03-31 19:15:00,
2013-03-31 15:20:00,41.9,38.6,29.66,SW,236,3.0,7.0,88,0.00,,OVC010,0.09,VWS V14.00,2013-03-31 19:20:00,
2013-03-31 15:25:00,41.8,38.5,29.66,SW,229,4.0,8.0,88,0.00,,OVC010,0.09,VWS V14.00,2013-03-31 19:25:00,
2013-03-31 15:30:00,41.8,38.5,29.65,WSW,252,3.0,3.0,88,0.00,,OVC010,0.09,VWS V14.00,2013-03-31 19:30:00,
2013-03-31 15:35:00,41.7,38.1,29.65,West,274,5.0,6.0,87,0.00,,OVC010,0.09,VWS V14.00,2013-03-31 19:35:00,
2013-03-31 15:40:00,41.6,38.3,29.65,SW,228,5.0,8.0,88,0.00,,OVC010,0.09,VWS V14.00,2013-03-31 19:40:00,
2013-03-31 15:45:00,41.6,38.6,29.65,WSW,240,4.0,8.0,89,0.00,,OVC010,0.09,VWS V14.00,2013-03-31 19:45:00,
2013-03-31 15:50:00,41.6,38.3,29.65,WNW,287,2.0,8.0,88,0.00,,OVC010,0.09,VWS V14.00,2013-03-31 19:50:00,
2013-03-31 15:55:00,41.8,38.5,29.65,NW,305,3.0,8.0,88,0.00,,OVC010,0.09,VWS V14.00,2013-03-31 19:55:00,
2013-03-31 16:00:00,41.7,39.5,29.65,West,277,0.0,0.0,92,0.00,,,0.09,VWS V14.00,2013-03-31 20:00:00,
2013-03-31 16:05:00,41.7,38.1,29.65,WSW,237,5.0,6.0,87,0.00,,,0.09,VWS V14.00,2013-03-31 20:05:00,
2013-03-31 16:10:00,41.5,38.2,29.65,SW,229,1.0,7.0,88,0.00,,,0.09,VWS V14.00,2013-03-31 20:10:00,
2013-03-31 16:15:00,41.4,38.1,29.65,WSW,252,0.0,12.0,88,0.00,,,0.09,VWS V14.00,2013-03-31 20:15:00,
2013-03-31 16:20:00,41.6,38.3,29.65,West,261,0.0,12.0,88,0.00,,,0.09,VWS V14.00,2013-03-31 20:20:00,
2013-03-31 16:25:00,41.7,38.4,29.65,West,265,0.0,12.0,88,0.00,,,0.09,VWS V14.00,2013-03-31 20:25:00,
2013-03-31 16:30:00,42.0,38.7,29.64,SW,226,2.0,3.0,88,0.00,,,0.09,VWS V14.00,2013-03-31 20:30:00,
2013-03-31 16:36:00,42.1,38.8,29.65,WSW,255,0.0,4.0,88,0.00,,,0.09,VWS V14.00,2013-03-31 20:36:00,
2013-03-31 16:41:00,42.4,38.8,29.64,SW,222,0.0,5.0,87,0.00,,,0.09,VWS V14.00,2013-03-31 20:41:00,
2013-03-31 16:46:00,42.7,39.1,29.65,WNW,294,3.0,7.0,87,0.00,,,0.09,VWS V14.00,2013-03-31 20:46:00,
2013-03-31 16:51:00,42.8,38.9,29.64,WNW,303,0.0,7.0,86,0.00,,,0.09,VWS V14.00,2013-03-31 20:51:00,
2013-03-31 16:56:00,42.9,39.3,29.64,West,268,0.0,7.0,87,0.00,,,0.09,VWS V14.00,2013-03-31 20:56:00,
2013-03-31 17:00:00,41.7,39.5,29.65,West,276,0.0,8.0,92,0.00,,OVC120,0.09,VWS V14.00,2013-03-31 21:00:00,
2013-03-31 17:02:00,43.2,39.3,29.64,WSW,246,4.0,5.0,86,0.00,,OVC018,0.09,VWS V14.00,2013-03-31 21:02:00,
2013-03-31 17:07:00,43.4,39.5,29.64,WSW,257,3.0,6.0,86,0.00,,OVC018,0.09,VWS V14.00,2013-03-31 21:07:00,
2013-03-31 17:12:00,43.6,39.4,29.64,NW,304,0.0,6.0,85,0.00,,OVC018,0.09,VWS V14.00,2013-03-31 21:12:00,
2013-03-31 17:17:00,43.8,39.6,29.64,NNW,337,3.0,6.0,85,0.00,,OVC018,0.09,VWS V14.00,2013-03-31 21:17:00,
2013-03-31 17:22:00,44.1,39.9,29.64,NNW,327,0.0,6.0,85,0.00,,OVC018,0.09,VWS V14.00,2013-03-31 21:22:00,
2013-03-31 17:27:00,44.2,39.7,29.64,SW,224,0.0,6.0,84,0.00,,OVC018,0.09,VWS V14.00,2013-03-31 21:27:00,
2013-03-31 17:30:00,41.9,38.6,29.65,SW,226,0.0,12.0,88,0.00,,OVC120,0.09,VWS V14.00,2013-03-31 21:30:00,
2013-03-31 17:32:00,44.3,39.8,29.64,West,261,0.0,0.0,84,0.00,,OVC018,0.09,VWS V14.00,2013-03-31 21:32:00,
2013-03-31 17:37:00,44.4,39.9,29.63,SSW,212,0.0,6.0,84,0.00,,OVC018,0.09,VWS V14.00,2013-03-31 21:37:00,
2013-03-31 17:42:00,44.6,40.1,29.64,WNW,284,1.0,6.0,84,0.00,,OVC018,0.09,VWS V14.00,2013-03-31 21:42:00,
2013-03-31 17:47:00,45.0,40.5,29.64,SW,222,2.0,7.0,84,0.00,,OVC018,0.09,VWS V14.00,2013-03-31 21:47:00,
2013-03-31 17:52:00,45.3,40.1,29.64,NW,304,2.0,7.0,82,0.00,,OVC018,0.09,VWS V14.00,2013-03-31 21:52:00,
2013-03-31 17:57:00,45.2,39.1,29.63,WSW,245,2.0,7.0,79,0.00,,OVC018,0.09,VWS V14.00,2013-03-31 21:57:00,
2013-03-31 18:00:00,43.1,39.5,29.64,WSW,249,4.0,7.0,87,0.00,,OVC120,0.09,VWS V14.00,2013-03-31 22:00:00,
2013-03-31 18:03:00,45.2,38.1,29.64,WSW,252,7.0,9.0,76,0.00,,OVC250,0.09,VWS V14.00,2013-03-31 22:03:00,
2013-03-31 18:08:00,45.0,37.9,29.64,WNW,283,2.0,9.0,76,0.00,,OVC250,0.09,VWS V14.00,2013-03-31 22:08:00,
2013-03-31 18:13:00,45.1,37.7,29.63,SW,231,0.0,9.0,75,0.00,,OVC250,0.09,VWS V14.00,2013-03-31 22:13:00,
2013-03-31 18:18:00,45.1,37.3,29.64,WSW,249,0.0,9.0,74,0.00,,OVC250,0.09,VWS V14.00,2013-03-31 22:18:00,
2013-03-31 18:23:00,45.2,37.4,29.63,West,275,0.0,9.0,74,0.00,,OVC250,0.09,VWS V14.00,2013-03-31 22:23:00,
2013-03-31 18:28:00,45.1,37.3,29.63,West,276,0.0,9.0,74,0.00,,OVC250,0.09,VWS V14.00,2013-03-31 22:28:00,
2013-03-31 18:30:00,44.3,39.8,29.64,West,261,0.0,6.0,84,0.00,,OVC120,0.09,VWS V14.00,2013-03-31 22:30:00,
2013-03-31 18:33:00,45.0,36.9,29.64,NNW,333,2.0,3.0,73,0.00,,OVC250,0.09,VWS V14.00,2013-03-31 22:33:00,
2013-03-31 18:38:00,45.0,36.5,29.63,North,5,0.0,6.0,72,0.00,,OVC250,0.09,VWS V14.00,2013-03-31 22:38:00,
2013-03-31 18:43:00,44.7,36.6,29.63,West,260,0.0,6.0,73,0.00,,OVC250,0.09,VWS V14.00,2013-03-31 22:43:00,
2013-03-31 18:48:00,44.5,36.0,29.63,West,268,2.0,7.0,72,0.00,,OVC250,0.09,VWS V14.00,2013-03-31 22:48:00,
2013-03-31 18:53:00,44.4,36.0,29.64,West,279,0.0,7.0,72,0.00,,OVC250,0.09,VWS V14.00,2013-03-31 22:53:00,
2013-03-31 18:58:00,44.2,35.4,29.64,WSW,250,2.0,7.0,71,0.00,,OVC250,0.09,VWS V14.00,2013-03-31 22:58:00,
2013-03-31 19:00:00,45.2,38.8,29.63,NW,304,1.0,7.0,78,0.00,,OVC120,0.09,VWS V14.00,2013-03-31 23:00:00,
2013-03-31 19:03:00,44.1,35.3,29.64,WNW,295,0.0,4.0,71,0.00,,OVC250,0.09,VWS V14.00,2013-03-31 23:03:00,
2013-03-31 19:08:00,44.1,35.3,29.64,WNW,292,0.0,5.0,71,0.00,,OVC250,0.09,VWS V14.00,2013-03-31 23:08:00,
2013-03-31 19:13:00,43.9,34.8,29.64,North,350,0.0,5.0,70,0.00,,OVC250,0.09,VWS V14.00,2013-03-31 23:13:00,
2013-03-31 19:18:00,43.6,34.5,29.64,WSW,257,2.0,7.0,70,0.00,,OVC250,0.09,VWS V14.00,2013-03-31 23:18:00,
2013-03-31 19:24:00,43.5,34.7,29.64,NNW,329,2.0,7.0,71,0.00,,OVC250,0.09,VWS V14.00,2013-03-31 23:24:00,
2013-03-31 19:29:00,43.4,34.6,29.64,West,261,0.0,7.0,71,0.00,,OVC250,0.09,VWS V14.00,2013-03-31 23:29:00,
2013-03-31 19:30:00,45.1,37.3,29.63,NNW,338,1.0,9.0,74,0.00,,OVC120,0.09,VWS V14.00,2013-03-31 23:30:00,
2013-03-31 19:34:00,43.4,34.6,29.64,West,275,1.0,4.0,71,0.00,,OVC250,0.09,VWS V14.00,2013-03-31 23:34:00,
2013-03-31 19:39:00,43.3,34.9,29.64,West,275,0.0,4.0,72,0.00,,OVC250,0.09,VWS V14.00,2013-03-31 23:39:00,
2013-03-31 19:44:00,43.2,34.8,29.64,West,266,0.0,5.0,72,0.00,,OVC250,0.09,VWS V14.00,2013-03-31 23:44:00,
2013-03-31 19:49:00,43.1,34.7,29.64,West,266,0.0,5.0,72,0.00,,OVC250,0.09,VWS V14.00,2013-03-31 23:49:00,
2013-03-31 19:54:00,42.9,34.8,29.64,WSW,256,2.0,8.0,73,0.00,,OVC250,0.09,VWS V14.00,2013-03-31 23:54:00,
2013-03-31 19:59:00,42.9,34.8,29.64,WSW,237,0.0,8.0,73,0.00,,OVC250,0.09,VWS V14.00,2013-03-31 23:59:00,
2013-03-31 20:00:00,44.2,35.4,29.64,WNW,292,3.0,7.0,71,0.00,,OVC120,0.09,VWS V14.00,2013-04-01 00:00:00,
2013-03-31 20:04:00,42.8,34.8,29.65,North,355,0.0,3.0,73,0.00,,OVC250,0.09,VWS V14.00,2013-04-01 00:04:00,
2013-03-31 20:09:00,42.8,34.8,29.65,West,268,2.0,5.0,73,0.00,,OVC250,0.09,VWS V14.00,2013-04-01 00:09:00,
2013-03-31 20:15:00,42.8,34.8,29.65,SW,236,0.0,5.0,73,0.00,,OVC250,0.09,VWS V14.00,2013-04-01 00:15:00,
2013-03-31 20:20:00,42.7,34.3,29.65,NW,304,0.0,8.0,72,0.00,,OVC250,0.09,VWS V14.00,2013-04-01 00:20:00,
2013-03-31 20:25:00,42.7,34.7,29.65,NW,307,2.0,8.0,73,0.00,,OVC250,0.09,VWS V14.00,2013-04-01 00:25:00,
2013-03-31 20:30:00,42.6,34.6,29.66,WSW,244,3.0,10.0,73,0.00,,OVC250,0.09,VWS V14.00,2013-04-01 00:30:00,
2013-03-31 20:35:00,42.4,34.4,29.66,West,279,2.0,10.0,73,0.00,,OVC250,0.09,VWS V14.00,2013-04-01 00:35:00,
2013-03-31 20:40:00,42.0,34.3,29.66,NW,309,1.0,13.0,74,0.00,,OVC250,0.09,VWS V14.00,2013-04-01 00:40:00,
2013-03-31 20:45:00,41.5,34.2,29.67,WNW,301,2.0,13.0,75,0.00,,OVC250,0.09,VWS V14.00,2013-04-01 00:45:00,
2013-03-31 20:50:00,41.0,34.0,29.67,WSW,252,8.0,13.0,76,0.00,,OVC250,0.09,VWS V14.00,2013-04-01 00:50:00,
2013-03-31 20:55:00,40.6,33.3,29.67,WNW,300,1.0,13.0,75,0.00,,OVC250,0.09,VWS V14.00,2013-04-01 00:55:00,
2013-03-31 21:00:00,40.4,33.1,29.67,WNW,294,2.0,4.0,75,0.00,,OVC031,0.09,VWS V14.00,2013-04-01 01:00:00,
2013-03-31 21:05:00,40.0,32.4,29.68,WSW,246,0.0,8.0,74,0.00,,OVC031,0.09,VWS V14.00,2013-04-01 01:05:00,
2013-03-31 21:10:00,39.7,31.8,29.68,West,263,9.0,10.0,73,0.00,,OVC031,0.09,VWS V14.00,2013-04-01 01:10:00,
2013-03-31 21:15:00,39.4,31.5,29.68,WSW,250,3.0,16.0,73,0.00,,OVC031,0.09,VWS V14.00,2013-04-01 01:15:00,
2013-03-31 21:20:00,39.1,31.5,29.68,SW,236,4.0,16.0,74,0.00,,OVC031,0.09,VWS V14.00,2013-04-01 01:20:00,
2013-03-31 21:26:00,38.8,31.2,29.68,NNW,331,5.0,16.0,74,0.00,,OVC031,0.09,VWS V14.00,2013-04-01 01:26:00,
2013-03-31 21:30:00,42.6,34.6,29.66,WSW,244,3.0,10.0,73,0.00,,OVC120,0.09,VWS V14.00,2013-04-01 01:30:00,
2013-03-31 21:31:00,38.6,31.0,29.69,WNW,283,4.0,7.0,74,0.00,,OVC031,0.09,VWS V14.00,2013-04-01 01:31:00,
2013-03-31 21:36:00,38.5,31.3,29.69,West,279,0.0,9.0,75,0.00,,OVC031,0.09,VWS V14.00,2013-04-01 01:36:00,
2013-03-31 21:41:00,38.4,31.2,29.70,West,277,4.0,9.0,75,0.00,,OVC031,0.09,VWS V14.00,2013-04-01 01:41:00,
2013-03-31 21:46:00,38.3,31.1,29.70,North,9,2.0,9.0,75,0.00,,OVC031,0.09,VWS V14.00,2013-04-01 01:46:00,
2013-03-31 21:52:00,38.2,31.3,29.70,West,276,0.0,9.0,76,0.00,,OVC031,0.09,VWS V14.00,2013-04-01 01:52:00,
2013-03-31 21:57:00,38.2,31.3,29.70,WSW,257,2.0,9.0,76,0.00,,OVC031,0.09,VWS V14.00,2013-04-01 01:57:00,
2013-03-31 22:00:00,40.4,33.1,29.67,West,277,3.0,13.0,75,0.00,,OVC120,0.09,VWS V14.00,2013-04-01 02:00:00,
2013-03-31 22:02:00,38.1,31.2,29.70,WNW,302,4.0,5.0,76,0.00,,OVC037,0.09,VWS V14.00,2013-04-01 02:02:00,
2013-03-31 22:07:00,38.0,31.1,29.70,West,277,1.0,9.0,76,0.00,,OVC037,0.09,VWS V14.00,2013-04-01 02:07:00,
2013-03-31 22:12:00,37.9,31.4,29.70,WNW,289,4.0,9.0,77,0.00,,OVC037,0.09,VWS V14.00,2013-04-01 02:12:00,
2013-03-31 22:17:00,37.8,31.2,29.70,WNW,286,1.0,9.0,77,0.00,,OVC037,0.09,VWS V14.00,2013-04-01 02:17:00,
2013-03-31 22:22:00,37.8,31.2,29.71,WNW,286,1.0,9.0,77,0.00,,OVC037,0.09,VWS V14.00,2013-04-01 02:22:00,
2013-03-31 22:27:00,37.7,31.5,29.71,WNW,284,1.0,9.0,78,0.00,,OVC037,0.09,VWS V14.00,2013-04-01 02:27:00,
2013-03-31 22:30:00,38.6,31.0,29.69,NE,48,3.0,16.0,74,0.00,,OVC120,0.09,VWS V14.00,2013-04-01 02:30:00,
2013-03-31 22:32:00,37.7,31.5,29.71,SSE,160,2.0,4.0,78,0.00,,OVC037,0.09,VWS V14.00,2013-04-01 02:32:00,
2013-03-31 22:37:00,37.7,31.5,29.71,WNW,284,0.0,6.0,78,0.00,,OVC037,0.09,VWS V14.00,2013-04-01 02:37:00,
2013-03-31 22:42:00,37.6,31.1,29.71,WNW,292,0.0,7.0,77,0.00,,OVC037,0.09,VWS V14.00,2013-04-01 02:42:00,
2013-03-31 22:47:00,37.4,30.9,29.71,NW,317,2.0,7.0,77,0.00,,OVC037,0.09,VWS V14.00,2013-04-01 02:47:00,
2013-03-31 22:52:00,37.1,30.6,29.71,NNW,342,0.0,8.0,77,0.00,,OVC037,0.09,VWS V14.00,2013-04-01 02:52:00,
2013-03-31 22:57:00,36.8,30.3,29.72,WNW,290,4.0,13.0,77,0.00,,OVC037,0.09,VWS V14.00,2013-04-01 02:57:00,
2013-03-31 23:00:00,38.1,31.2,29.70,WNW,282,2.0,9.0,76,0.00,,OVC120,0.09,VWS V14.00,2013-04-01 03:00:00,
2013-03-31 23:02:00,36.6,30.4,29.72,WNW,290,0.0,1.0,78,0.00,,OVC049,0.09,VWS V14.00,2013-04-01 03:02:00,
2013-03-31 23:07:00,36.3,30.4,29.72,NNW,329,3.0,4.0,79,0.00,,OVC049,0.09,VWS V14.00,2013-04-01 03:07:00,
2013-03-31 23:13:00,36.0,30.1,29.72,NE,55,2.0,10.0,79,0.00,,OVC049,0.09,VWS V14.00,2013-04-01 03:13:00,
2013-03-31 23:18:00,35.7,29.8,29.72,SW,231,2.0,10.0,79,0.00,,OVC049,0.09,VWS V14.00,2013-04-01 03:18:00,
2013-03-31 23:23:00,35.5,30.0,29.73,West,264,3.0,10.0,80,0.00,,OVC049,0.09,VWS V14.00,2013-04-01 03:23:00,
2013-03-31 23:28:00,35.2,29.7,29.73,NW,326,1.0,10.0,80,0.00,,OVC049,0.09,VWS V14.00,2013-04-01 03:28:00,
2013-03-31 23:30:00,37.7,31.5,29.71,WSW,250,2.0,9.0,78,0.00,,OVC120,0.09,VWS V14.00,2013-04-01 03:30:00,
2013-03-31 23:33:00,35.1,29.9,29.73,WNW,283,3.0,4.0,81,0.00,,OVC049,0.09,VWS V14.00,2013-04-01 03:33:00,
2013-03-31 23:38:00,35.0,30.1,29.73,ENE,57,0.0,6.0,82,0.00,,OVC049,0.09,VWS V14.00,2013-04-01 03:38:00,
2013-03-31 23:43:00,35.0,30.1,29.73,NNE,15,0.0,10.0,82,0.00,,OVC049,0.09,VWS V14.00,2013-04-01 03:43:00,
2013-03-31 23:48:00,35.0,30.1,29.73,NNE,28,0.0,10.0,82,0.00,,OVC049,0.09,VWS V14.00,2013-04-01 03:48:00,
2013-03-31 23:53:00,35.0,30.1,29.73,WNW,286,1.0,10.0,82,0.00,,OVC049,0.09,VWS V14.00,2013-04-01 03:53:00,
2013-03-31 23:58:00,34.9,30.0,29.73,West,277,2.0,10.0,82,0.00,,OVC049,0.09,VWS V14.00,2013-04-01 03:58:00,